LKKB Weather Reports


Display with metric or nautical units.
time (UTC)temp
F
wind
direction
speed
MPH
gust
MPH
rain 1hr
in
rain 24hr
in
rain mn
in
humidity
%
barometer
mb
20260831003103 64 190 6.0 0.0 0.00 0.00 0.00 77 1015.0
20260831001852 64 190 7.0 0.0 0.00 0.00 0.00 77
20260831000103 66 200 6.0 0.0 0.00 0.00 0.00 72 1015.0
20260830233102 64 210 5.0 0.0 0.00 0.00 0.00 77 1015.0
20260830232052 66 180 5.0 0.0 0.00 0.00 0.00 72
20260830230103 66 170 6.0 0.0 0.00 0.00 0.00 72 1015.0
20260830223103 66 180 3.0 0.0 0.00 0.00 0.00 72 1015.0
20260830222053 66 170 5.0 0.0 0.00 0.00 0.00 72
20260830213102 66 180 3.0 0.0 0.00 0.00 0.00 72 1015.0
20260830211854 70 210 5.0 0.0 0.00 0.00 0.00 60
20260830203102 68 240 6.0 0.0 0.00 0.00 0.00 68 1015.0
20260830202051 72 220 7.0 0.0 0.00 0.00 0.00 56
20260830200212 70 220 7.0 0.0 0.00 0.00 0.00 64 1015.0
20260830193103 70 230 6.0 0.0 0.00 0.00 0.00 64 1015.0
20260830191951 75 240 5.0 0.0 0.00 0.00 0.00 50
20260830190211 72 230 6.0 0.0 0.00 0.00 0.00 60 1015.0
20260830183103 73 220 6.0 0.0 0.00 0.00 0.00 53 1014.0
20260830181853 75 210 7.0 0.0 0.00 0.00 0.00 50
20260830173103 75 210 8.0 0.0 0.00 0.00 0.00 50 1014.0
20260830172051 77 210 9.0 0.0 0.00 0.00 0.00 44
20260830163103 77 250 12.0 0.0 0.00 0.00 0.00 44 1014.0
20260830161952 79 250 9.0 0.0 0.00 0.00 0.00 39
20260830160104 79 230 10.0 0.0 0.00 0.00 0.00 44 1014.0
20260830153102 79 220 10.0 0.0 0.00 0.00 0.00 44 1014.0
20260830152606 79 220 9.0 0.0 0.00 0.00 0.00 39
20260830151851 79 220 9.0 0.0 0.00 0.00 0.00 39
20260830150211 79 220 13.0 0.0 0.00 0.00 0.00 41 1014.0
20260830143103 79 220 14.0 0.0 0.00 0.00 0.00 44 1014.0
20260830141951 79 230 14.0 0.0 0.00 0.00 0.00 41
20260830133103 79 220 15.0 0.0 0.00 0.00 0.00 44 1014.0
20260830131951 79 210 16.0 0.0 0.00 0.00 0.00 41
20260830123102 79 230 14.0 0.0 0.00 0.00 0.00 50 1014.0
20260830121909 77 220 16.0 0.0 0.00 0.00 0.00 44
20260830120104 79 230 14.0 0.0 0.00 0.00 0.00 47 1014.0
20260830113103 77 230 17.0 0.0 0.00 0.00 0.00 47 1015.0
20260830111951 79 230 16.0 0.0 0.00 0.00 0.00 44
20260830103103 77 210 16.0 0.0 0.00 0.00 0.00 50 1015.0
20260830102153 79 220 16.0 0.0 0.00 0.00 0.00 47
20260830093103 75 210 13.0 0.0 0.00 0.00 0.00 53 1015.0
20260830091853 75 220 14.0 0.0 0.00 0.00 0.00 50
20260830090211 75 220 14.0 0.0 0.00 0.00 0.00 53 1015.0
20260830083102 73 220 12.0 0.0 0.00 0.00 0.00 56 1015.0
20260830081953 72 230 12.0 0.0 0.00 0.00 0.00 56
20260830073102 70 210 9.0 0.0 0.00 0.00 0.00 64 1015.0
20260830071951 68 200 9.0 0.0 0.00 0.00 0.00 60
20260830070103 68 180 8.0 0.0 0.00 0.00 0.00 64 1015.0
20260830063103 64 180 8.0 0.0 0.00 0.00 0.00 72 1015.0
20260830061854 64 190 9.0 0.0 0.00 0.00 0.00 67
20260830053103 64 180 8.0 0.0 0.00 0.00 0.00 72 1015.0
20260830051951 64 180 7.0 0.0 0.00 0.00 0.00 67
20260830050211 64 180 8.0 0.0 0.00 0.00 0.00 72 1015.0
20260830043103 63 180 8.0 0.0 0.00 0.00 0.00 72 1015.0
20260830042051 63 180 9.0 0.0 0.00 0.00 0.00 72
20260830033104 63 190 9.0 0.0 0.00 0.00 0.00 72 1015.0
20260830031851 63 190 9.0 0.0 0.00 0.00 0.00 67
20260830030103 63 190 8.0 0.0 0.00 0.00 0.00 72 1015.0
20260830023102 63 170 8.0 0.0 0.00 0.00 0.00 72 1015.0
20260830021951 63 170 7.0 0.0 0.00 0.00 0.00 72
20260830013103 63 190 8.0 0.0 0.00 0.00 0.00 72 1015.0
20260830011951 64 180 7.0 0.0 0.00 0.00 0.00 67
20260830010104 63 180 6.0 0.0 0.00 0.00 0.00 72 1015.0